RH
65 73 62 45 36 33 34 33 30 34 40 42 43 42 43 45 49 57 64 72 82 89 95 95 97 100 98 98 96 102 113 107 93 89 90 92 93 95 97 99 101 101 99 94 91 89 82 74 70 68 67 62 58 54 50 48 49 52 54 58 64 67 69 74 78 81 84 85 91 94 94 94 94 94 93 92 93 94 94 94 98 105 106 105 105 106 108 106
92 89 65 51 49 47 40 33 33 41 54 57 55 56 57 57 58 65 73 84 95 101 100 97 103 106 100 101 101 105 108 99 92 93 95 95 96 99 100 100 99 97 93 90 86 80 74 71 70 66 62 56 53 51 49 50 55 60 63 68 73 76 79 82 85 89 91 92 96 99 99 98 98 99 97 96 97 95 94 94 100 105 101 96 96 97 99 101
89 84 74 71 70 68 59 51 56 66 74 68 63 66 68 70 71 77 86 93 98 100 99 100 109 111 103 104 104 102 100 96 97 98 97 98 99 99 99 99 97 93 89 85 79 74 71 69 65 60 55 52 50 50 51 54 62 69 71 72 74 77 80 82 84 86 85 85 87 89 88 87 86 87 88 90 92 86 86 92 96 96 89 86 86 85 86 89
84 82 78 81 85 89 87 83 91 97 91 77 72 74 77 87 93 95 99 100 100 101 100 101 106 104 99 99 98 98 98 98 100 99 99 99 99 99 99 97 93 88 83 78 74 70 66 62 58 54 51 50 49 51 54 59 65 70 72 71 71 73 75 75 75 75 74 73 73 73 71 68 66 66 67 68 70 66 67 72 71 69 67 66 67 67 69 71
77 88 87 87 95 101 99 96 95 91 83 77 77 80 85 95 99 97 96 94 93 94 95 96 96 95 95 97 99 99 99 99 99 99 100 99 99 99 96 92 86 80 76 72 68 62 57 52 49 48 48 49 51 53 58 62 64 66 67 68 68 67 65 62 60 58 57 55 54 52 49 46 45 46 47 46 47 48 48 46 42 42 43 43 43 44 46 48
84 95 95 92 97 98 95 91 88 84 83 86 90 91 90 91 92 91 92 92 92 94 96 97 97 98 100 101 100 100 99 100 100 100 101 99 97 93 88 83 78 73 68 63 57 51 46 43 43 46 49 53 56 58 62 64 63 62 62 61 59 54 50 46 43 42 40 40 39 37 35 32 33 34 33 33 34 36 36 33 31 31 32 34 36 38 39 40
104 102 103 100 100 97 94 92 93 95 96 98 100 99 97 95 94 96 97 98 99 99 100 100 101 101 101 100 101 101 101 102 100 99 98 94 91 85 79 74 69 64 58 52 47 43 41 42 44 48 52 56 59 60 62 62 59 56 53 49 45 40 37 34 33 33 32 33 31 29 27 25 28 31 32 31 31 33 33 32 32 33 34 37 39 39 39 39
108 100 103 105 100 96 97 99 100 101 101 102 102 100 100 99 99 100 100 99 100 101 101 101 100 100 100 101 102 102 103 102 97 95 92 87 82 75 69 64 58 53 49 44 41 40 42 45 48 50 53 55 57 58 56 54 50 46 42 38 35 32 30 29 29 28 27 27 26 24 22 23 28 33 35 34 32 31 31 32 33 35 37 38 39 38 37 38
104 100 103 103 94 92 95 98 101 101 100 101 100 100 100 100 100 100 101 101 101 100 101 101 101 102 102 101 101 102 102 98 94 91 86 79 72 65 60 55 50 46 43 40 38 40 44 47 50 51 51 51 50 48 45 43 42 39 37 34 32 29 27 26 24 24 23 23 24 22 20 24 30 33 34 34 32 31 30 32 33 35 37 37 36 35 35 36
99 103 106 101 89 88 92 94 101 104 103 101 100 100 101 100 101 101 101 101 100 100 103 103 102 102 101 101 101 102 99 94 90 84 76 68 62 58 53 48 44 40 37 35 36 39 41 43 43 42 41 40 39 38 39 40 39 37 34 31 28 26 24 23 23 24 25 27 27 25 24 27 30 31 32 31 30 28 27 29 30 31 33 33 32 32 33 34
100 101 102 101 95 96 101 101 104 105 106 106 104 102 101 100 101 100 100 101 101 100 102 101 100 101 103 103 102 100 95 88 80 71 64 60 56 52 46 41 36 32 31 31 32 32 32 33 33 33 34 36 37 39 40 38 36 33 30 28 25 24 24 25 27 28 29 31 30 27 26 27 29 28 27 26 25 24 24 24 26 27 29 30 31 32 32 33
103 101 102 104 105 107 107 105 106 107 107 108 106 103 101 100 101 101 101 101 99 99 101 101 103 107 105 102 100 93 84 75 68 63 60 56 50 44 37 32 28 27 27 27 27 27 28 29 31 34 35 38 39 39 38 36 34 32 29 27 26 26 26 27 28 29 30 30 29 27 24 24 25 25 23 22 21 21 22 22 24 25 25 27 28 29 30 32
103 103 106 105 106 107 105 101 103 105 105 106 106 105 103 102 102 102 101 102 102 103 104 102 105 109 105 98 90 80 73 68 66 63 58 51 43 35 30 27 26 26 27 27 27 28 29 31 33 35 36 38 38 37 37 36 34 32 31 30 31 31 29 30 29 29 29 28 27 25 23 21 21 21 21 20 20 21 21 22 23 24 24 25 27 28 29 32
108 108 107 105 104 105 104 101 101 101 101 102 103 103 103 103 103 103 103 104 104 103 103 104 109 107 95 84 77 74 74 71 67 60 52 43 35 31 29 28 27 27 27 27 27 29 31 33 34 36 37 38 39 38 37 36 34 35 35 35 35 35 33 32 32 30 30 29 29 27 26 24 21 20 20 20 21 22 22 22 23 23 25 26 28 30 31 34
96 101 102 101 101 101 101 101 101 103 103 104 104 104 105 103 103 103 104 105 104 105 108 108 103 91 80 78 80 80 77 70 63 54 44 37 34 32 31 30 29 28 27 26 27 30 34 36 38 39 40 39 38 37 36 36 37 39 40 40 38 38 37 35 35 34 33 32 32 30 29 28 24 22 22 22 22 23 24 23 23 23 24 25 27 29 31 33
75 86 94 99 100 101 103 103 104 106 105 105 105 104 103 102 104 104 106 109 109 108 104 95 87 82 84 90 89 81 73 66 58 49 42 39 37 35 33 33 32 30 28 28 30 35 39 41 42 41 39 37 36 36 37 38 40 44 46 45 43 41 40 40 39 40 39 36 35 33 32 31 28 26 25 25 26 26 26 25 24 23 24 24 26 28 29 30
86 95 100 103 103 103 105 106 105 105 104 104 103 104 105 107 108 106 106 107 102 95 89 86 88 91 96 96 87 76 70 65 57 50 46 44 42 40 40 40 37 33 30 31 35 41 44 45 43 40 38 36 36 37 39 41 44 48 50 49 47 44 43 42 42 42 42 41 38 36 37 36 33 30 30 30 31 31 31 31 29 28 28 29 30 32 33 33
102 102 102 102 101 101 104 105 104 103 103 102 102 105 107 106 106 104 102 97 90 88 89 94 99 100 99 92 81 74 72 67 60 53 51 49 49 49 48 45 41 36 33 34 38 43 45 45 43 41 39 37 37 38 41 44 47 49 51 50 49 48 47 46 45 45 44 43 41 39 39 40 36 32 32 32 33 35 35 34 34 34 35 36 37 40 41 42
102 101 102 100 98 100 101 101 100 100 101 99 101 104 104 103 105 103 97 92 92 95 99 103 103 101 95 85 76 74 74 71 64 59 57 56 56 54 52 47 41 36 34 36 40 44 45 45 44 42 40 39 38 40 44 46 49 51 51 51 51 51 50 48 47 47 46 45 43 39 38 39 37 33 33 34 35 37 36 36 36 37 39 40 42 43 44 44
103 102 100 98 98 100 100 98 96 98 99 100 102 103 103 103 102 98 95 96 99 101 103 104 102 96 87 78 73 72 73 72 68 65 63 62 60 58 54 47 39 34 34 37 41 43 44 45 45 44 44 43 42 43 46 49 51 53 54 54 53 53 51 49 48 47 46 44 43 39 35 36 37 36 36 40 44 45 42 39 38 41 44 46 46 46 46 45
103 100 99 102 102 100 99 98 98 100 101 101 102 102 103 102 98 96 97 99 100 102 104 101 95 87 79 73 69 68 69 72 71 69 67 65 63 61 58 50 42 36 34 36 38 39 40 44 47 48 49 47 45 45 47 50 53 56 56 55 55 54 52 50 49 47 46 45 44 41 36 31 31 33 36 44 52 52 47 43 42 45 47 49 49 49 48 50
100 100 102 104 103 100 99 98 99 102 104 104 104 104 103 99 96 97 96 97 101 103 101 96 88 80 74 70 66 66 70 74 73 69 68 67 65 63 61 55 47 41 37 35 35 35 38 45 51 54 53 51 47 45 47 52 56 59 59 58 58 58 56 55 53 51 50 50 49 47 43 36 29 28 31 42 54 55 50 47 45 46 48 49 49 48 51 56
100 102 102 101 102 100 97 97 100 106 108 106 104 101 98 95 95 95 94 98 104 103 97 91 83 77 73 68 66 69 73 74 71 68 67 67 67 67 64 58 51 44 39 35 33 35 40 49 57 59 57 54 49 47 50 55 60 63 63 63 63 63 64 63 62 61 60 60 59 56 55 47 35 27 26 34 48 55 55 52 49 50 52 50 50 51 55 58
101 102 101 101 101 96 94 99 105 107 105 102 99 95 94 94 96 95 95 101 105 102 94 86 79 75 71 68 68 72 74 74 71 67 66 68 69 67 62 56 50 44 39 34 33 38 46 56 62 63 61 58 53 51 54 59 64 67 67 67 68 69 70 70 70 70 70 71 68 64 67 65 49 35 32 34 40 48 52 51 50 52 54 56 58 59 60 62
100 100 99 98 93 90 95 103 106 105 101 99 97 96 97 98 98 97 99 104 105 98 90 82 76 73 71 70 71 73 75 74 70 64 62 65 66 63 58 53 48 44 38 33 35 42 53 63 67 68 66 62 57 55 58 64 68 71 70 69 70 73 75 74 73 75 78 79 75 70 76 82 69 51 45 44 43 45 47 45 44 46 51 57 61 65 69 73
97 96 93 89 87 91 98 104 105 103 101 99 98 99 101 102 101 101 105 107 101 92 86 79 74 73 73 73 73 73 75 74 67 60 59 62 64 62 57 52 50 47 38 32 36 46 58 67 71 72 69 64 61 60 64 71 76 76 74 72 75 77 78 77 77 79 82 82 79 74 77 85 82 68 58 54 54 55 53 48 47 48 52 58 63 71 76 74
94 92 88 87 91 96 101 104 104 102 100 100 100 101 101 101 101 104 107 103 93 86 82 77 76 77 77 77 76 75 77 74 66 61 62 64 65 60 54 51 51 48 40 33 36 49 61 69 73 73 70 68 67 67 71 76 79 80 79 79 81 82 82 81 81 82 82 83 83 80 79 82 84 82 74 69 71 71 65 59 59 61 63 68 72 74 72 69
95 93 93 95 97 100 104 104 101 99 100 101 102 101 100 100 102 105 102 93 86 82 79 78 79 80 80 80 80 80 80 75 69 66 66 69 67 59 52 49 49 49 43 35 38 51 62 70 75 74 75 76 74 73 75 77 79 81 83 84 84 85 85 84 85 85 83 86 87 84 81 79 82 86 81 81 86 82 74 69 69 72 74 76 76 74 73 75
97 98 99 99 100 103 104 99 97 100 101 101 102 101 100 103 105 103 94 86 83 81 81 82 85 87 87 87 86 85 82 77 73 69 68 71 68 60 54 49 48 49 43 36 41 54 66 74 78 79 82 82 80 79 79 78 81 84 86 85 85 87 86 86 88 84 83 88 87 82 79 77 82 86 83 86 91 86 78 74 76 79 79 77 77 77 78 79
100 100 99 101 105 104 97 93 98 104 102 100 101 101 102 105 104 97 88 84 84 85 87 89 92 95 95 93 92 89 86 81 76 72 70 73 72 66 59 51 49 51 44 39 46 58 69 76 79 84 89 88 85 83 81 81 84 86 85 81 83 84 83 86 87 84 84 87 85 82 78 76 82 84 82 84 86 82 75 74 79 82 79 78 80 81 80 77
100 99 101 106 105 95 88 90 99 104 102 100 99 98 101 102 98 92 89 88 90 91 91 91 96 101 100 98 95 92 90 86 80 76 74 77 79 74 64 52 48 51 45 42 48 59 71 77 81 87 91 91 86 81 80 83 86 84 79 76 78 81 81 84 86 84 86 84 82 82 78 78 85 85 82 83 81 73 68 72 79 78 76 79 81 81 79 75
101 103 105 102 91 82 85 93 98 99 96 94 94 97 100 99 95 94 94 94 96 95 90 92 99 103 102 99 97 96 93 88 83 80 80 84 86 79 66 52 48 50 46 45 53 65 75 83 87 90 92 89 84 80 82 87 88 83 77 77 79 80 80 82 85 85 86 83 78 77 76 79 88 88 84 84 78 68 65 73 76 72 74 76 76 76 74 71
104 99 89 77 70 74 84 93 96 96 95 96 101 103 100 97 97 97 97 97 99 96 94 98 101 100 99 98 100 100 95 89 87 85 85 90 90 81 65 52 48 50 47 49 62 75 83 89 92 96 98 94 89 88 90 90 88 83 81 81 82 83 80 81 84 85 86 86 79 73 73 76 83 86 85 85 76 65 68 75 72 70 74 74 72 72 69 68
85 70 60 59 65 76 86 93 97 100 103 106 106 103 98 99 100 99 99 99 99 99 99 101 99 97 98 100 100 97 93 90 89 88 89 91 89 79 63 51 50 50 47 54 68 80 90 97 99 102 103 101 100 99 95 90 85 83 85 84 85 88 85 83 85 85 86 88 86 80 76 78 82 84 87 85 74 68 75 77 71 71 75 73 72 72 70 67
59 55 60 72 83 94 102 106 108 107 106 104 101 98 98 101 101 99 101 102 101 101 100 99 98 98 98 98 95 91 90 91 90 90 90 90 86 75 60 53 54 51 50 60 74 82 92 100 105 109 109 107 107 102 95 87 81 83 86 86 88 90 89 87 87 87 87 87 90 89 82 83 87 87 90 83 69 70 79 74 70 74 75 73 73 74 73 69
55 66 79 92 101 107 108 107 105 103 100 98 97 96 98 101 101 101 104 104 100 97 95 95 95 95 95 92 90 89 90 92 90 90 90 88 82 69 56 55 58 55 55 67 80 85 90 99 106 110 111 110 106 99 93 87 82 83 85 87 90 89 89 89 88 89 89 83 86 90 83 82 87 91 93 80 66 72 77 69 70 76 75 75 76 76 75 71
71 82 92 100 104 103 101 100 100 100 99 100 99 99 101 102 101 102 102 98 94 92 93 94 93 93 93 92 91 91 91 91 89 89 89 85 77 63 53 56 59 58 60 71 83 87 89 97 105 108 110 110 105 99 96 92 87 85 85 88 89 87 86 87 86 87 87 79 78 86 85 79 85 98 93 73 67 74 72 67 72 76 76 77 78 78 76 70
96 101 104 105 105 104 104 105 106 105 105 105 102 101 102 100 97 97 95 92 92 93 95 95 94 94 95 94 93 91 89 88 87 86 87 84 71 55 49 55 58 60 66 77 87 91 89 93 103 109 110 110 106 100 97 95 90 87 89 90 89 88 86 86 87 88 86 77 70 79 83 76 89 105 88 67 72 77 69 70 76 77 78 79 78 78 74 67
107 108 108 108 109 110 109 108 107 105 106 104 99 97 99 99 97 94 91 93 96 98 99 97 96 97 97 96 93 88 85 85 85 85 87 81 65 49 47 55 58 63 74 84 92 95 90 90 100 109 111 109 104 100 100 96 89 88 91 91 91 91 88 88 92 93 91 81 72 71 70 75 100 105 80 72 82 79 71 75 80 80 80 80 80 80 77 72
102 103 104 104 108 111 108 105 103 101 101 100 97 96 98 98 96 93 93 97 101 100 100 98 97 98 97 93 89 83 81 83 86 88 86 73 56 47 49 56 61 68 79 91 98 97 91 89 97 107 112 110 102 101 102 96 90 91 92 93 94 91 88 90 91 95 96 87 80 69 56 77 108 96 73 81 87 77 74 80 84 84 83 84 86 87 85 81
98 100 101 101 105 106 103 102 103 103 104 103 99 97 97 99 101 100 99 99 99 98 98 98 98 96 94 90 85 80 80 85 90 89 79 63 51 48 53 61 68 73 83 96 102 100 92 89 96 107 112 108 104 106 106 99 95 95 93 94 94 92 94 94 90 92 89 84 86 71 54 83 108 87 77 91 87 76 80 86 90 89 88 90 93 94 91 86
85 89 90 91 94 95 95 99 100 99 99 98 97 97 100 103 104 100 94 92 95 97 98 98 97 93 91 90 85 80 81 88 93 83 66 55 51 51 57 65 72 81 92 100 104 104 97 91 95 105 110 109 108 108 107 102 97 96 96 95 93 95 99 97 93 87 78 80 88 71 62 87 96 82 89 98 87 81 87 93 96 94 94 97 97 97 94 87
69 71 72 74 77 79 84 89 89 88 90 90 91 92 92 94 93 88 87 90 95 97 98 97 96 92 90 89 85 83 85 87 83 70 57 54 55 56 61 67 76 91 99 99 102 105 99 92 95 102 108 113 112 108 108 105 99 97 96 94 95 98 100 100 95 81 73 84 88 73 74 86 82 83 97 94 83 84 91 96 98 95 97 99 98 99 94 89
67 68 68 69 70 73 76 79 79 79 79 78 80 81 82 86 87 86 89 93 96 99 99 96 92 90 89 88 85 83 80 71 62 56 54 57 58 59 63 71 86 102 105 99 101 102 96 93 96 98 102 106 106 105 107 107 101 94 90 92 97 101 105 103 90 75 78 87 82 78 85 83 80 93 100 88 80 86 94 97 96 97 100 100 101 101 96 92
70 72 74 74 73 76 79 79 78 78 77 79 83 85 86 87 88 89 93 96 97 98 96 89 87 89 86 79 73 68 60 51 47 48 51 54 56 60 68 82 99 109 110 107 106 104 98 96 98 100 101 100 98 99 103 104 99 89 88 95 101 107 111 99 81 81 89 82 73 85 91 79 85 104 99 85 84 90 97 98 96 100 103 102 103 102 98 96
68 71 75 77 76 78 82 82 82 84 84 87 90 91 88 88 90 91 92 93 93 89 86 84 83 78 65 54 51 50 47 44 42 41 43 49 55 62 77 96 107 108 108 110 109 103 98 97 100 102 104 104 100 100 105 103 94 88 91 98 106 112 106 89 84 97 97 77 73 91 90 78 92 108 95 84 89 94 99 100 100 103 104 102 102 99 95 94
70 72 75 78 77 78 81 82 83 85 87 88 90 88 84 83 86 86 85 86 84 78 74 71 62 49 40 38 42 46 47 43 37 35 41 49 58 72 89 104 109 108 107 109 107 100 93 95 101 102 103 105 102 103 108 101 90 91 96 101 111 109 95 88 97 104 94 78 78 89 88 84 98 106 93 87 93 97 99 101 103 105 104 101 100 98 95 93
67 70 71 72 73 75 77 78 78 80 81 83 82 80 78 77 78 78 78 75 69 60 54 48 38 31 33 38 42 46 46 40 35 38 46 55 67 84 97 105 107 105 103 105 104 98 92 93 101 103 103 103 103 105 106 96 89 93 99 106 111 102 92 98 103 99 92 85 83 88 89 91 101 103 93 90 96 101 103 104 104 106 105 102 98 97 97 97
56 59 59 59 61 64 64 64 66 69 70 71 71 70 70 68 65 61 58 54 47 39 35 33 30 31 35 38 40 44 43 38 38 45 56 67 81 92 99 104 106 102 101 103 103 101 97 96 101 103 99 101 107 105 99 94 89 91 101 109 106 98 100 104 100 95 94 88 87 91 92 95 104 104 97 96 99 102 106 107 106 106 105 103 100 98 99 100
46 47 47 47 50 51 50 50 53 56 56 55 55 54 51 47 43 39 35 34 33 30 27 28 29 31 34 37 39 40 40 39 41 51 64 76 86 94 99 103 104 104 107 107 102 103 104 100 102 100 90 94 105 102 97 94 86 88 102 108 102 102 106 102 96 95 96 92 92 95 96 101 106 103 100 103 103 102 104 106 106 106 104 102 100 98 100 100
36 36 35 35 36 36 35 34 35 37 37 36 35 34 32 30 28 27 25 25 25 25 24 26 29 31 34 37 38 39 40 41 44 54 65 74 83 94 101 102 104 105 104 102 99 102 104 100 100 94 82 86 98 96 94 90 82 88 103 105 105 109 105 97 95 98 99 100 99 98 102 106 105 102 104 107 107 107 105 104 107 107 104 103 102 101 99 95
22 22 21 22 23 22 21 20 21 23 24 24 23 23 23 22 21 22 23 22 21 21 23 26 29 32 36 38 39 40 41 42 46 53 62 71 85 98 103 104 107 104 97 96 99 101 101 99 96 88 80 84 91 90 87 83 80 90 103 106 106 106 99 93 96 99 103 104 102 104 109 106 101 103 108 108 108 111 108 106 108 107 103 101 103 102 94 86
Wind_Speed
33 32 33 34 36 38 39 39 39 38 37 37 38 37 37 37 36 36 36 35 35 36 37 38 39 40 41 42 43 44 46 47 49 50 51 53 54 56 58 60 63 65 67 68 69 70 69 68 66 64 63 61 58 55 53 51 49 47 46 46 46 46 46 46 47 48 49 50 50 50 51 51 51 51 52 53 54 55 56 56 56 58 60 61 62 63 64 65
31 32 32 33 33 34 35 35 35 35 35 36 36 34 33 33 33 33 33 32 33 34 35 37 38 39 40 42 44 45 47 48 50 51 52 54 56 58 61 63 65 67 68 69 69 68 67 65 63 62 60 57 55 52 51 50 48 47 47 47 47 48 48 49 50 51 52 53 53 54 55 55 55 56 57 58 58 59 59 59 59 62 63 63 64 65 66 67
30 31 31 31 30 31 31 31 31 32 35 35 33 31 29 29 29 29 29 30 32 34 36 38 39 40 42 44 45 47 48 49 50 52 54 56 58 61 63 65 66 67 68 67 67 65 64 62 61 59 56 54 52 50 49 48 48 48 48 49 50 50 51 52 52 53 54 55 56 56 57 58 58 59 60 61 62 63 62 62 65 67 67 67 67 68 69 70
28 29 30 30 31 31 31 31 31 32 33 32 29 28 28 27 28 29 31 33 35 37 38 39 40 41 43 44 45 46 48 50 52 54 57 58 60 62 64 65 66 67 66 65 64 62 61 60 57 55 53 51 50 49 48 48 48 49 50 51 52 52 53 54 54 55 56 57 58 59 59 60 60 60 61 62 63 64 64 65 67 68 68 68 68 69 70 71
29 29 31 33 34 35 34 33 34 33 31 29 27 28 28 29 30 32 34 35 36 37 37 38 39 40 42 43 45 47 50 52 54 56 57 59 61 62 64 65 65 64 63 61 60 60 58 56 54 52 50 49 48 48 48 49 50 50 51 52 53 54 55 56 56 57 57 58 59 59 60 59 59 60 62 62 62 63 64 65 66 66 66 67 67 68 68 69
31 31 32 34 36 36 35 34 33 31 29 28 28 28 29 30 31 32 32 33 34 34 36 37 39 41 43 45 48 50 51 53 55 56 58 60 61 62 63 63 62 61 60 59 58 56 54 52 50 49 48 48 48 49 49 50 52 52 53 54 55 56 56 57 57 57 57 58 59 59 59 58 58 60 61 61 61 62 64 65 65 64 65 65 66 66 66 67
32 33 34 34 35 36 35 34 33 32 31 30 30 30 30 30 31 32 33 34 35 37 38 40 42 44 46 48 49 51 52 54 55 57 59 60 61 60 60 59 58 58 57 56 54 52 51 49 48 47 47 48 48 49 50 51 53 53 54 55 56 56 57 57 57 57 57 57 58 58 58 57 57 59 61 61 60 61 62 63 63 63 63 63 64 65 65 65
33 34 35 34 36 38 36 36 35 34 34 33 33 33 32 33 34 35 36 38 39 41 42 44 45 46 48 48 50 52 53 55 56 57 59 59 58 57 56 55 55 55 54 53 51 50 49 48 47 47 47 48 49 50 51 52 53 54 55 56 56 56 56 56 56 56 56 56 57 57 56 55 55 57 59 60 60 60 60 60 61 61 62 63 63 64 64 64
34 35 37 37 37 38 38 37 36 36 36 35 35 34 35 36 37 38 40 41 42 43 44 45 46 47 48 50 51 53 54 55 55 56 56 55 54 54 53 53 53 52 51 50 49 48 48 47 48 48 48 49 50 50 51 52 53 54 55 56 56 56 56 55 55 55 55 56 56 56 54 53 54 56 57 59 59 59 58 58 59 60 61 62 63 63 63 63
33 35 38 38 37 35 36 37 36 36 36 37 36 36 37 38 39 40 41 43 43 44 45 46 47 48 50 51 52 52 53 53 53 53 52 51 51 52 51 51 50 50 49 48 48 48 48 48 48 49 49 49 50 50 51 52 53 54 55 55 55 55 55 55 55 55 55 55 56 56 53 52 53 54 56 57 58 58 57 57 57 58 59 60 61 61 61 61
31 32 34 34 33 33 35 36 37 38 38 39 39 39 40 40 41 41 42 43 44 45 46 47 48 49 49 49 49 49 50 50 49 49 49 49 49 49 49 49 49 48 48 48 47 47 48 48 48 48 48 49 49 50 51 52 53 54 54 54 54 54 54 54 54 54 54 54 55 54 52 51 52 53 54 55 56 56 55 55 55 56 57 58 58 59 59 59
30 29 29 29 29 30 32 35 36 38 40 41 42 42 42 43 43 44 44 45 46 46 46 47 47 46 46 47 47 47 47 46 46 47 47 48 48 48 48 48 47 47 47 47 47 47 47 47 47 47 48 48 49 50 51 52 53 54 54 54 54 54 54 53 52 52 51 51 52 52 50 49 50 51 52 53 53 54 53 53 54 54 55 56 57 57 57 58
28 27 27 28 28 29 30 31 33 35 37 39 40 41 42 43 43 44 44 44 44 44 44 43 43 43 44 44 44 44 44 44 44 45 46 47 47 47 47 46 46 46 46 46 46 46 46 46 46 47 47 48 49 50 50 52 53 53 54 54 54 54 53 52 51 50 50 50 50 51 50 49 48 49 51 51 51 52 52 52 52 53 54 55 56 56 57 57
29 27 27 27 28 29 29 31 31 33 34 35 37 38 39 40 41 41 41 40 40 40 40 41 41 42 42 41 41 41 41 42 44 45 45 46 46 45 45 45 45 45 45 45 46 46 46 46 46 47 47 48 49 49 50 51 52 52 53 53 52 52 52 51 51 50 49 49 49 49 49 50 49 49 50 50 50 51 52 52 52 52 53 54 54 55 56 56
26 26 26 26 27 28 29 30 31 32 33 34 35 36 36 37 37 37 37 37 37 38 39 39 39 39 38 38 39 40 41 42 43 44 44 44 44 45 45 45 45 45 46 46 47 47 47 47 47 47 47 48 48 49 49 50 50 50 51 51 51 51 51 51 51 50 49 49 49 48 48 50 50 49 49 50 49 50 51 51 52 52 52 53 53 54 54 55
21 22 22 23 24 26 27 28 29 30 30 31 31 32 33 33 34 34 35 36 36 37 36 36 36 36 36 38 40 41 41 42 42 43 43 44 44 45 45 46 46 46 47 47 47 47 47 47 47 47 47 47 47 48 48 48 49 49 49 50 51 50 50 50 50 49 49 48 48 48 47 49 50 49 50 50 50 51 51 51 52 52 53 53 53 53 54 54
17 18 19 20 22 23 24 25 26 27 28 28 29 29 30 31 32 33 34 34 33 33 33 33 34 35 37 39 40 41 41 41 41 42 43 44 45 46 46 47 47 47 48 48 47 47 47 46 46 46 46 47 47 47 47 47 47 47 47 48 49 50 49 49 49 48 48 48 48 47 46 48 49 49 49 50 50 51 51 52 52 53 53 53 54 54 54 55
16 17 18 20 22 23 24 24 25 26 26 27 27 28 29 29 30 30 30 30 30 31 32 33 35 36 38 40 40 41 41 41 41 42 43 45 45 46 47 47 48 48 48 48 47 47 46 46 46 46 46 46 47 47 47 46 46 46 46 47 47 48 48 48 48 48 47 47 48 47 46 47 48 48 48 49 49 50 50 51 52 52 53 53 53 54 54 55
18 19 20 21 21 22 23 24 24 25 25 25 26 26 27 28 28 28 28 29 29 30 32 34 36 37 39 40 40 41 41 41 42 43 44 45 46 46 47 47 48 48 48 47 47 47 46 46 46 46 46 46 46 46 46 46 46 46 46 47 46 46 47 47 47 47 48 48 49 49 46 46 48 48 48 49 49 50 50 51 52 52 53 53 53 53 53 54
19 20 21 21 21 22 23 24 24 24 24 24 25 26 26 27 27 27 27 28 30 32 33 35 37 38 39 40 41 41 41 42 43 44 45 46 46 47 47 48 48 47 47 47 47 47 47 46 46 46 46 46 46 46 46 46 46 46 46 47 47 47 47 47 47 47 47 48 50 51 49 47 47 48 48 49 50 50 50 51 52 53 53 54 54 54 54 55
20 21 21 21 23 24 24 24 24 24 24 25 26 26 26 26 26 27 28 29 31 33 34 36 37 39 40 40 41 41 41 42 43 44 45 46 47 48 48 48 48 47 47 47 47 48 47 47 47 46 46 46 46 46 46 45 45 46 47 47 48 48 48 48 47 47 48 49 50 53 53 50 48 48 48 48 48 49 50 51 51 52 53 54 54 54 54 55
21 21 22 24 25 25 25 24 24 25 25 26 26 25 25 26 27 28 29 31 33 34 35 37 38 39 40 40 40 41 41 42 43 44 46 47 48 48 49 49 48 48 48 48 48 48 48 47 47 46 46 46 46 46 46 46 46 46 47 48 49 49 49 49 49 49 49 51 52 54 57 55 51 48 48 49 49 48 50 51 51 52 52 52 52 53 53 54
21 23 25 26 26 25 25 24 25 25 26 26 25 25 26 27 28 29 31 32 34 35 36 38 39 39 40 40 40 40 41 42 43 44 46 47 47 48 48 49 49 49 49 48 48 48 47 47 47 47 47 47 47 46 46 46 46 47 48 49 50 50 50 50 50 51 51 52 53 54 57 60 57 51 49 51 52 51 51 52 51 52 52 52 53 53 53 53
23 25 27 26 26 25 24 24 25 26 25 25 26 26 27 28 30 31 33 34 35 36 37 38 39 39 40 40 40 41 41 42 44 45 46 46 47 48 48 49 49 49 49 48 47 47 47 47 47 47 47 48 47 47 46 46 47 48 49 50 50 50 50 50 50 52 53 54 55 54 55 61 63 58 53 53 54 54 54 54 53 54 55 55 56 57 57 56
26 27 27 26 26 25 24 25 25 25 25 26 26 27 28 30 32 33 34 35 36 37 38 39 39 40 40 40 41 41 42 43 44 45 45 46 47 48 49 49 49 48 48 48 47 46 46 46 47 47 48 48 48 47 47 48 48 50 50 51 51 51 51 51 51 51 53 55 57 56 55 58 63 64 59 56 56 56 57 56 55 56 58 59 60 61 61 62
26 27 27 26 26 25 25 25 25 25 26 27 28 29 31 32 34 35 36 36 38 39 39 40 40 41 41 41 42 42 42 43 45 45 45 46 47 49 49 49 49 49 49 48 47 46 46 47 47 48 48 49 48 48 48 48 50 51 52 52 52 52 52 52 52 52 53 55 57 57 56 56 60 64 63 61 60 60 59 59 58 59 60 62 62 63 64 65
27 27 27 27 26 26 26 25 26 27 28 29 30 31 33 34 35 36 37 38 39 40 40 40 41 42 42 43 43 43 43 45 45 46 47 48 49 49 50 50 50 50 50 48 47 46 47 47 48 49 49 49 49 49 49 49 51 52 53 53 53 53 52 52 52 53 54 55 56 57 57 57 58 62 64 63 63 63 62 62 62 62 63 63 64 65 66 67
28 28 28 28 28 27 27 26 27 28 29 30 31 33 34 35 37 38 39 39 40 41 40 41 42 42 43 44 44 45 45 46 47 48 49 50 51 51 51 51 51 51 51 49 47 47 47 47 48 49 50 50 50 49 50 51 52 53 54 54 53 53 53 52 52 53 54 54 56 57 58 58 58 61 63 62 63 64 64 64 65 65 65 66 67 67 68 68
29 29 29 29 29 29 28 28 28 29 30 31 33 34 36 37 39 40 40 41 41 41 41 42 43 44 44 45 46 46 47 48 49 51 52 52 53 53 53 53 52 52 51 49 48 47 47 48 49 49 50 50 50 50 51 52 52 54 55 54 54 53 53 53 53 54 53 54 56 57 59 58 58 60 62 63 64 64 64 65 65 66 67 68 68 69 69 69
30 30 31 31 30 30 30 29 29 30 32 34 36 37 38 39 41 41 41 42 42 42 43 44 44 45 46 46 47 48 49 50 52 54 54 55 56 55 55 55 54 53 51 50 48 47 48 48 49 49 50 51 51 51 52 53 54 55 56 56 54 54 53 53 54 55 54 54 55 57 59 59 59 61 62 63 65 65 65 64 65 67 68 68 69 69 69 69
32 32 33 33 32 31 31 31 31 32 35 37 38 39 39 41 42 42 42 42 43 44 45 45 46 47 48 48 49 50 52 54 55 57 57 57 58 58 58 56 55 53 52 50 49 48 48 49 49 50 51 52 52 53 53 53 55 56 57 57 56 55 53 53 54 54 54 55 56 57 59 60 60 62 63 64 66 67 66 65 67 68 68 68 69 69 69 69
35 35 35 34 33 33 32 33 34 35 36 38 39 39 41 41 42 42 42 43 44 46 46 47 48 49 50 51 52 53 55 56 58 58 59 59 60 60 59 58 55 53 52 50 49 49 50 50 51 51 52 53 53 54 54 54 55 57 59 59 58 57 55 53 54 54 54 55 57 58 60 60 62 64 65 66 68 68 67 67 68 69 69 70 70 70 69 69
37 37 36 35 34 34 34 35 35 36 37 38 39 41 42 42 42 43 44 45 46 47 48 49 50 51 52 53 54 56 57 58 59 60 60 61 61 61 61 59 56 54 52 50 49 49 51 52 53 53 54 54 54 55 55 55 56 57 59 60 60 61 59 56 54 54 54 55 57 59 61 61 63 65 67 69 70 69 68 69 70 70 70 71 70 70 70 70
38 37 36 35 34 34 34 35 36 36 38 39 41 42 42 42 43 44 45 47 48 49 50 51 51 52 53 55 56 57 59 60 60 61 62 62 62 62 61 60 57 54 52 49 48 48 50 53 55 55 55 56 56 57 57 57 57 58 59 61 62 63 63 61 59 57 56 55 56 60 62 63 65 67 69 71 72 69 69 71 71 71 72 72 71 71 71 71
36 35 34 33 33 34 35 36 36 38 39 40 41 42 42 43 44 45 47 48 49 50 51 52 52 53 55 57 58 59 60 61 62 62 62 62 62 63 61 60 58 55 52 50 48 48 48 51 54 56 56 57 57 58 59 60 59 59 60 62 63 64 66 65 63 61 61 58 57 59 63 65 67 69 71 74 73 70 71 73 73 73 74 74 74 74 73 73
34 33 33 34 34 35 36 37 38 39 40 41 42 42 43 44 46 47 48 49 50 51 52 53 54 55 57 58 59 60 61 62 62 63 63 63 63 63 62 59 58 56 53 50 49 49 47 48 52 54 55 57 59 59 60 62 62 61 62 63 65 66 67 68 66 64 65 63 59 60 63 66 69 71 74 76 74 72 74 75 75 76 77 77 77 77 76 75
33 33 33 34 36 37 37 38 39 40 41 42 43 43 44 46 47 48 49 50 51 52 54 55 56 57 58 60 61 61 61 62 62 63 64 64 64 63 61 59 57 56 54 51 50 50 48 46 49 53 55 57 60 60 61 63 64 64 64 65 67 68 68 69 69 67 68 67 63 62 64 66 70 74 77 77 75 75 77 77 77 79 80 80 80 80 79 78
33 33 33 35 36 37 38 38 39 40 41 43 44 44 46 48 48 49 51 52 52 54 55 56 57 59 60 61 62 62 62 62 63 63 64 66 66 64 61 58 57 55 54 52 51 51 50 46 46 51 55 58 60 61 61 63 64 64 65 67 69 70 71 71 71 70 71 71 67 64 64 65 69 76 80 78 77 79 79 79 80 82 82 82 82 82 81 80
35 35 35 36 37 37 38 39 40 41 42 44 45 46 47 49 50 51 52 53 54 55 57 58 59 60 62 62 63 63 62 63 64 65 66 68 67 64 60 58 56 54 53 53 52 52 52 48 46 49 54 57 60 62 62 63 65 65 66 68 70 72 73 73 72 72 74 75 72 69 64 62 68 77 79 79 80 81 81 80 82 84 84 85 85 85 85 84
36 36 37 38 38 39 40 41 42 43 44 46 47 47 49 51 52 53 53 54 55 57 58 60 60 61 62 63 63 63 63 64 65 67 68 69 67 63 60 58 56 55 54 53 54 55 54 51 48 49 53 56 59 62 63 64 65 65 67 68 71 73 74 75 73 73 76 76 76 76 66 61 69 79 79 80 83 83 82 83 85 87 87 88 89 89 88 88
38 38 38 39 40 41 41 42 44 45 46 47 48 49 51 52 54 55 55 56 57 58 60 61 61 62 63 64 64 63 64 65 68 69 70 68 66 62 60 59 57 57 56 55 57 58 56 53 50 50 54 56 59 62 65 66 66 66 67 69 72 74 76 77 75 75 77 77 78 81 71 64 73 81 80 83 86 85 85 87 89 90 91 92 92 92 92 91
40 40 40 41 42 42 43 44 45 46 47 48 50 51 52 53 55 57 57 57 58 60 61 61 62 63 64 65 65 65 65 67 69 71 69 67 65 63 61 60 59 58 58 57 58 60 59 56 53 52 54 56 59 62 66 67 67 67 68 71 73 75 77 79 79 78 79 78 81 83 75 70 76 81 82 86 88 87 88 90 91 93 93 94 95 94 94 93
40 41 41 42 42 43 44 45 46 47 48 50 51 52 53 55 56 57 58 58 59 61 62 63 64 64 65 66 66 67 68 68 69 69 68 65 65 64 62 61 59 59 60 60 60 61 61 59 56 55 54 55 58 63 66 68 69 68 69 72 74 76 78 80 81 82 80 80 83 84 80 78 80 82 85 89 89 89 90 92 94 95 96 97 97 97 97 96
42 42 43 44 44 45 46 47 48 49 50 51 52 53 55 56 57 58 59 60 61 62 64 65 65 66 67 67 68 69 70 69 66 65 65 64 64 64 63 61 60 60 62 62 62 63 62 60 60 60 58 56 58 61 65 68 69 69 70 73 75 77 80 82 84 83 82 83 84 84 85 84 83 84 89 91 90 91 93 95 96 97 99 100 100 100 100 99
44 45 46 46 47 47 48 49 50 51 52 53 54 56 57 58 59 60 60 62 63 64 65 66 67 68 68 68 68 69 69 66 63 62 62 63 63 63 62 61 61 62 63 64 65 65 63 61 61 64 64 63 63 65 68 69 69 70 71 74 77 79 82 85 86 85 86 87 83 84 89 88 85 89 93 93 93 94 96 98 99 100 102 103 103 103 103 102
45 46 47 48 48 49 50 51 52 53 54 55 56 58 59 59 61 62 62 63 64 65 66 67 69 69 68 67 66 66 66 65 62 61 61 61 61 61 61 61 62 63 65 66 67 67 65 61 61 65 65 66 68 70 73 74 72 72 73 75 78 82 85 87 87 87 90 90 85 85 91 90 87 93 97 95 96 98 99 101 103 104 106 106 106 106 105 105
46 47 48 49 50 50 51 52 53 54 55 57 58 60 61 61 62 63 63 65 66 67 67 68 69 67 65 63 63 63 64 64 63 61 60 60 60 59 60 60 62 64 65 67 67 68 67 63 62 65 65 66 69 72 75 76 74 73 74 76 80 85 87 88 88 90 93 93 89 88 92 91 90 96 99 98 99 101 103 105 106 108 109 109 109 109 108 108
47 48 49 50 51 52 53 54 54 56 57 58 59 61 62 62 63 63 65 66 67 67 66 66 66 63 61 61 61 61 63 64 62 61 61 60 59 59 59 60 62 64 66 68 69 70 69 65 64 66 66 66 70 73 76 77 75 74 75 77 82 87 89 89 90 92 94 95 93 93 94 93 94 99 101 101 102 104 106 108 109 111 112 112 112 111 111 110
48 49 50 51 52 54 54 54 55 57 58 59 60 61 62 63 64 64 64 65 65 65 64 63 62 60 59 60 60 61 63 62 61 61 61 60 59 60 60 60 63 66 67 69 71 71 71 68 67 70 69 66 70 75 77 77 76 74 75 79 85 88 89 91 92 93 96 96 96 97 97 96 98 102 103 103 105 107 108 110 112 114 115 114 114 113 113 112
49 50 51 52 53 55 56 55 56 58 59 60 60 61 62 63 63 62 62 62 62 63 61 60 60 59 59 60 61 61 62 61 60 60 60 59 59 60 61 61 64 67 68 70 72 71 72 70 70 74 72 68 70 76 77 78 77 75 75 81 87 89 91 93 93 94 97 98 98 99 100 99 102 104 105 106 108 109 111 113 115 116 117 117 116 115 115 114
50 51 52 53 55 56 56 56 56 57 58 59 59 59 60 61 60 60 60 60 60 60 60 59 59 59 60 61 61 61 61 61 60 60 59 59 60 61 62 63 65 68 70 71 71 71 71 72 73 77 76 72 73 77 78 79 78 75 77 83 87 90 92 94 94 95 98 100 100 102 103 103 105 106 107 109 110 111 113 115 117 118 119 119 118 117 116 115
49 50 50 51 53 55 55 54 54 55 56 57 57 57 58 58 58 58 59 59 59 59 58 58 59 60 61 62 62 61 61 60 60 60 60 60 61 61 63 65 67 70 70 71 71 70 72 74 76 79 79 76 77 80 81 80 78 77 80 85 88 91 93 94 94 95 98 101 103 104 106 107 108 108 110 111 112 113 115 117 119 120 120 120 120 119 117 116
Wind_Direction
202 205 205 205 207 210 213 217 219 222 226 228 230 231 232 234 235 237 239 242 245 247 249 252 255 258 260 262 263 265 267 269 272 274 275 276 278 280 282 283 285 287 289 291 293 294 295 296 296 296 296 296 295 295 294 294 293 294 295 296 295 295 294 293 292 291 290 289 288 287 285 283 281 280 278 277 276 275 274 273 273 272 271 269 268 268 268 268
198 198 200 203 206 211 215 218 220 221 223 226 229 231 233 235 236 237 239 241 244 247 251 254 257 258 260 261 263 265 268 271 273 274 276 277 279 281 283 284 286 288 290 292 293 294 295 295 295 295 295 295 294 294 293 293 293 294 295 296 295 293 292 291 291 290 289 288 286 285 284 283 282 280 280 279 277 276 276 276 275 273 271 271 270 269 268 268
196 197 198 202 205 211 216 217 218 220 223 226 229 232 234 235 237 238 238 240 243 248 252 255 256 258 259 261 264 267 270 272 273 275 277 280 281 282 284 285 287 289 291 293 294 294 295 295 295 295 294 294 293 293 293 293 293 294 295 294 294 292 291 290 289 288 287 286 285 284 283 282 282 281 280 279 279 279 278 277 275 273 273 273 272 271 270 270
199 201 201 201 204 209 212 213 215 219 224 228 230 231 231 232 233 234 235 239 244 249 252 255 257 259 261 264 266 268 270 272 275 277 280 281 282 283 285 287 289 291 292 293 293 294 294 294 294 294 293 293 293 293 293 293 293 294 294 293 293 292 291 290 289 288 287 286 285 284 283 283 283 282 281 280 280 280 280 278 275 275 275 274 273 273 272 271
203 204 203 202 204 207 210 212 216 221 226 229 230 231 230 230 232 234 238 243 247 251 254 257 259 261 263 265 267 269 272 275 277 279 281 282 283 285 287 288 290 291 292 292 292 293 293 293 293 293 292 292 293 294 294 294 294 293 293 292 292 291 290 289 289 288 287 287 286 285 285 285 285 284 283 282 282 281 280 278 278 277 277 276 276 275 274 273
204 203 205 207 207 209 212 215 219 223 227 229 231 234 235 236 237 240 245 248 252 254 256 258 260 262 263 266 269 272 275 277 279 280 282 283 285 286 288 289 290 290 291 291 292 292 293 293 293 293 293 294 294 295 295 294 294 294 293 293 292 291 291 290 290 289 289 288 288 287 287 288 287 286 285 284 283 282 280 280 280 279 279 278 278 277 276 275
200 201 204 209 211 212 215 218 221 223 226 228 230 235 239 241 243 245 247 250 252 254 255 257 260 263 266 269 272 275 277 279 280 282 283 285 286 287 288 288 289 290 290 292 293 293 294 294 295 295 295 295 295 295 295 294 294 294 294 293 292 292 291 291 291 291 291 290 290 289 289 289 289 287 286 285 284 282 282 282 282 282 281 280 279 278 277 276
195 199 203 208 213 214 215 217 220 222 224 228 231 235 239 241 244 246 248 250 252 254 257 260 263 266 269 272 275 277 279 281 282 283 285 286 287 287 288 289 290 291 292 294 295 295 296 296 296 296 296 296 295 295 295 294 294 294 294 293 293 293 293 293 293 293 293 292 291 290 290 290 290 288 287 286 285 284 284 284 284 283 282 281 280 280 279 278
196 201 206 211 216 216 216 217 220 222 225 229 234 237 239 242 245 247 250 252 255 258 261 264 267 270 272 275 277 279 280 282 283 285 286 287 287 288 289 291 292 293 294 296 297 297 297 297 297 296 296 296 295 295 295 295 295 295 295 294 294 294 295 295 295 295 295 294 293 292 293 293 291 289 288 287 286 286 285 285 284 284 283 282 281 281 280 280
201 205 209 215 220 220 220 221 223 225 227 231 235 238 241 244 247 250 253 256 259 262 264 267 269 272 274 276 278 279 281 283 284 285 286 288 289 290 291 293 294 295 296 297 297 298 297 297 297 296 296 296 296 296 296 296 296 295 295 295 296 297 297 298 298 298 298 297 296 295 295 294 292 290 289 288 287 287 287 286 285 284 283 282 282 281 280 280
205 208 212 218 223 223 225 227 228 230 231 233 236 239 242 245 248 252 255 258 261 264 267 269 271 273 275 277 279 280 282 284 285 286 288 289 291 292 294 295 296 297 298 298 299 299 299 299 298 298 298 298 298 298 298 297 296 296 297 298 299 299 300 300 300 299 298 297 296 296 296 295 293 291 290 289 289 289 288 287 286 285 283 283 282 281 280 280
209 211 214 217 220 222 225 228 231 234 236 237 239 242 245 248 251 254 257 260 263 266 268 270 272 274 276 278 280 282 283 285 287 289 291 292 294 295 296 298 299 300 301 301 302 302 301 301 300 300 300 300 299 299 298 298 298 299 300 301 301 301 301 301 300 299 299 298 297 297 296 295 293 292 291 291 291 290 290 289 287 286 285 284 283 283 282 281
212 213 215 218 220 221 224 227 231 235 239 241 244 246 249 252 254 257 260 262 265 266 268 270 273 275 277 279 282 284 287 289 292 293 295 296 297 298 299 301 302 303 303 304 304 304 303 303 302 302 301 301 300 300 300 300 301 301 302 302 302 302 302 302 302 302 301 300 299 298 298 296 294 293 293 293 293 292 292 290 289 288 288 287 286 285 285 284
214 217 219 222 224 226 227 230 233 236 239 242 245 247 250 253 255 258 260 262 264 266 269 271 273 276 279 282 285 288 291 294 295 296 297 298 299 300 302 303 304 305 305 306 306 305 305 304 304 304 303 302 302 301 301 301 301 301 302 302 303 304 304 305 304 304 303 302 301 301 301 299 298 297 296 296 295 294 293 292 291 290 289 288 287 286 285 285
211 216 221 224 228 231 232 234 236 239 241 243 245 248 250 253 255 258 260 262 264 267 269 272 275 278 283 287 289 292 295 296 297 298 299 299 300 301 303 304 306 306 307 307 307 307 306 306 305 304 303 302 301 301 300 300 301 302 303 305 306 307 307 307 306 306 305 304 303 302 302 301 300 299 298 297 296 295 294 293 292 291 290 288 287 286 285 284
209 212 217 222 226 230 233 235 237 239 241 243 246 248 250 252 255 258 261 263 265 268 271 275 279 283 288 291 293 295 296 297 298 299 299 300 301 302 304 306 307 308 308 308 308 307 306 305 304 303 302 301 301 301 301 301 302 304 306 308 308 308 308 307 307 306 305 305 304 303 303 301 301 301 300 299 298 297 296 295 294 293 292 291 290 288 287 286
214 214 218 221 225 228 231 233 236 238 241 244 246 249 252 255 258 260 263 266 269 273 277 281 284 288 291 293 294 296 297 298 298 299 300 301 303 305 307 308 308 308 308 307 307 305 304 303 303 302 302 302 302 302 302 303 304 306 307 308 309 308 307 307 306 306 305 305 304 304 303 302 301 301 301 300 300 299 298 298 297 296 295 295 294 293 293 292
220 224 227 225 225 227 230 233 236 239 243 248 251 255 258 260 263 265 269 273 276 279 282 285 287 290 292 294 295 296 297 297 298 300 302 303 305 307 308 308 308 307 307 306 305 304 303 303 303 303 303 303 303 303 304 304 305 306 307 308 309 308 308 307 307 307 306 304 303 302 302 301 300 300 300 300 299 299 299 299 299 298 297 296 296 296 296 295
227 232 231 229 229 232 235 239 242 246 250 255 259 262 264 266 269 272 275 278 280 281 283 287 290 292 294 295 296 296 296 297 299 301 303 304 306 308 309 308 308 307 305 304 304 303 304 304 304 303 303 304 304 305 305 306 306 307 308 309 309 309 308 307 307 307 306 305 304 302 301 301 301 301 301 301 301 301 301 301 301 300 299 298 297 297 297 296
231 232 232 235 239 243 246 248 250 255 259 262 265 267 269 271 274 276 278 279 281 283 286 289 292 294 295 295 295 295 296 298 300 302 303 304 306 307 309 309 308 307 306 305 305 304 304 304 304 304 305 306 306 306 306 307 308 309 310 310 310 309 308 307 307 306 306 306 305 304 302 302 302 303 304 304 305 305 304 304 303 302 301 301 301 300 299 298
232 233 236 241 245 248 250 253 258 262 264 266 267 269 272 274 276 277 278 280 283 286 290 292 294 295 296 296 296 296 297 299 301 303 304 304 305 307 308 309 309 308 306 305 304 304 304 304 304 305 306 307 307 307 307 307 308 309 310 311 311 310 310 309 309 309 308 308 309 307 305 304 303 304 305 306 307 308 307 305 304 303 303 303 302 302 300 298
232 236 241 244 246 250 253 258 263 266 267 268 270 272 273 274 276 278 280 283 287 290 292 294 295 296 297 297 297 298 299 301 303 305 305 305 306 307 307 308 309 309 307 305 304 304 304 304 305 306 307 308 308 308 308 308 309 310 311 312 312 312 312 312 312 311 311 312 312 312 310 308 306 305 306 307 310 311 309 306 305 305 304 303 302 300 298 296
236 240 244 247 250 253 258 263 267 268 269 270 271 272 273 276 278 280 283 287 289 292 293 295 296 297 298 298 299 300 301 302 305 306 307 307 307 307 307 308 308 308 308 306 304 304 304 305 306 307 308 309 309 309 309 309 310 311 312 313 313 314 314 315 315 314 314 314 314 315 314 311 309 308 308 309 312 314 311 310 309 309 308 306 304 301 299 298
239 242 246 249 254 258 263 267 268 269 269 271 273 274 276 278 280 283 286 288 291 293 294 295 296 297 298 300 302 303 303 304 306 307 308 307 307 307 307 308 308 308 308 307 305 305 305 305 306 307 308 310 310 310 309 310 310 311 312 313 314 315 315 315 315 316 316 316 315 316 317 315 312 312 312 312 313 313 312 312 313 312 312 310 308 307 306 304
242 246 250 254 259 263 266 267 268 269 270 272 274 275 277 279 282 285 287 290 292 293 295 295 296 298 299 302 304 305 305 306 307 307 308 308 308 309 309 309 310 310 309 308 306 305 305 305 306 307 309 310 311 310 310 310 310 311 312 314 315 315 315 315 315 316 316 316 316 317 318 317 314 314 315 314 314 313 312 313 313 313 313 312 312 312 310 307
249 252 256 259 263 265 266 267 268 269 270 272 274 275 277 280 282 285 288 291 292 294 294 295 297 299 301 304 306 306 306 306 307 308 309 310 310 311 312 311 311 311 310 309 307 306 306 306 306 307 309 310 311 310 310 310 310 311 313 314 315 315 315 315 316 316 316 316 316 316 317 317 315 314 315 317 316 315 315 315 315 315 314 314 314 312 309 307
254 257 260 263 265 266 266 266 267 269 271 273 275 276 278 281 283 286 289 291 292 293 294 295 298 301 303 306 306 306 307 306 308 309 311 312 313 313 313 312 312 312 312 310 308 306 306 306 306 307 309 311 311 310 310 309 310 311 313 314 315 314 315 315 315 315 316 316 316 316 316 316 316 315 316 318 318 318 318 318 318 317 317 316 313 311 309 308
257 260 262 264 265 265 265 265 268 271 273 274 276 278 280 282 285 287 289 291 292 293 295 297 299 302 305 306 307 307 307 307 309 311 312 314 314 314 314 313 312 313 312 311 308 307 306 306 307 308 309 310 310 309 308 308 309 311 313 314 314 314 314 314 315 314 315 316 316 316 316 316 317 316 316 318 318 318 318 318 319 319 317 315 313 312 311 309
257 259 261 263 263 264 264 265 268 271 273 274 276 277 280 283 286 288 290 292 292 294 296 298 301 303 305 306 307 307 307 308 310 311 313 315 315 315 315 315 314 314 313 311 309 307 307 307 307 308 309 309 309 308 307 308 310 311 312 313 313 313 313 314 314 314 316 316 315 316 315 316 317 315 315 316 316 316 317 318 319 318 316 316 314 313 311 309
255 257 259 261 262 262 264 265 267 269 270 272 274 277 280 283 286 288 291 292 293 296 298 300 302 303 305 306 306 307 307 309 310 312 313 314 315 316 316 317 316 315 314 311 309 307 306 306 306 307 307 308 308 307 307 309 310 312 311 312 313 312 313 314 313 314 315 315 315 315 315 316 316 314 315 315 314 314 315 317 318 316 316 316 314 313 310 309
254 256 258 260 261 262 264 266 267 267 269 272 275 278 281 284 287 289 291 292 294 296 298 300 301 302 304 305 305 306 308 309 310 312 313 314 316 316 317 317 316 315 314 311 308 307 306 306 306 307 308 308 308 307 308 309 311 311 311 311 312 311 312 313 312 313 315 314 315 315 314 316 316 314 314 313 312 313 315 317 317 316 316 315 314 313 311 310
256 257 259 260 262 263 265 266 267 268 271 275 279 282 284 286 288 289 291 293 295 297 298 300 300 301 302 303 305 306 307 309 310 311 313 315 316 316 317 317 316 315 313 311 309 308 307 307 307 308 308 308 308 308 308 310 311 311 312 312 312 311 311 312 312 313 314 314 314 314 315 316 316 315 314 313 312 313 316 317 316 316 316 315 314 313 312 311
258 260 261 262 263 265 267 269 271 273 276 280 282 284 285 287 288 289 291 293 295 296 298 299 299 300 301 303 304 305 307 308 309 311 313 314 315 316 317 317 316 315 313 311 309 309 309 309 309 309 309 308 308 308 309 311 312 312 312 313 312 312 312 313 313 313 313 313 314 314 315 316 316 315 314 312 311 314 317 316 315 316 316 315 315 314 313 312
261 263 265 267 269 271 272 274 276 278 280 281 282 283 285 286 287 289 291 292 294 295 296 297 298 300 301 302 303 304 306 308 309 311 313 314 315 316 317 316 315 314 312 310 309 309 310 310 310 310 309 309 309 309 310 311 312 313 313 313 314 313 313 314 314 314 313 313 315 315 316 317 316 315 314 312 312 315 318 316 315 317 317 316 316 315 315 313
265 267 270 272 274 275 275 276 277 278 279 280 281 282 284 285 286 288 290 292 293 294 295 297 298 299 301 302 303 304 306 308 309 311 312 313 314 315 316 316 314 313 311 309 308 308 309 309 309 309 309 309 308 309 310 311 313 314 314 315 315 314 314 315 315 315 314 314 316 316 317 318 317 316 314 311 313 317 318 316 317 318 318 317 317 317 316 315
268 270 272 273 274 274 275 276 277 278 279 280 281 282 283 284 286 288 290 291 292 294 296 297 298 299 300 301 303 304 306 308 309 311 312 313 314 315 316 315 313 312 310 308 307 307 308 309 307 307 307 307 307 309 311 312 313 314 315 316 315 314 314 314 315 315 314 314 316 317 318 318 318 317 313 311 315 319 317 316 319 319 319 319 319 318 318 316
272 272 273 273 274 276 277 278 279 280 280 280 281 282 283 285 286 288 289 291 293 295 296 297 298 299 300 301 303 305 307 308 309 311 312 313 314 315 315 314 312 310 308 307 307 307 308 309 307 306 306 306 307 310 311 312 313 314 316 315 314 314 314 314 315 315 313 313 316 318 319 320 320 316 311 312 318 319 316 318 320 320 320 320 319 319 318 317
273 274 275 275 275 277 278 279 279 279 280 280 281 283 284 285 287 288 289 292 294 295 296 297 298 299 300 302 303 305 306 308 310 311 313 313 314 314 314 313 311 309 308 307 306 306 307 308 307 305 305 306 307 309 311 311 312 314 315 314 314 314 314 314 315 315 313 313 316 318 319 322 321 314 310 315 319 318 317 320 321 320 320 320 319 319 318 317
270 271 272 273 273 274 275 275 276 277 278 279 281 283 284 286 287 289 290 293 294 295 296 297 298 299 300 301 303 305 307 309 311 312 313 313 313 314 314 312 311 309 307 306 306 306 306 307 306 303 303 304 306 308 309 310 311 313 314 314 314 313 313 314 315 315 313 314 317 317 320 325 319 310 311 318 319 317 319 321 321 320 320 320 320 319 319 319
266 267 268 269 271 272 273 274 275 276 278 279 281 283 284 286 288 289 291 293 293 294 296 297 298 299 300 301 303 305 308 310 311 312 312 312 312 313 313 312 310 308 308 307 306 305 306 307 305 303 302 303 305 307 308 309 311 313 313 314 313 312 313 313 314 315 313 315 317 316 321 329 317 310 315 319 317 318 321 322 321 320 321 321 321 321 320 320
263 264 264 266 267 269 271 273 274 276 278 280 282 284 285 287 288 290 291 292 293 294 296 297 298 299 300 302 304 306 309 310 311 311 311 311 311 311 311 311 309 308 308 307 305 305 306 306 305 303 302 303 306 307 307 309 311 312 313 313 312 313 313 312 314 314 313 316 316 314 323 328 316 313 319 319 317 320 322 322 321 321 321 321 321 321 321 320
262 263 264 265 267 268 270 271 273 275 277 280 282 283 285 286 287 289 290 292 293 295 296 297 298 300 301 303 305 307 309 310 310 310 310 310 310 310 311 310 309 309 308 306 305 305 306 306 304 302 302 304 306 306 307 308 310 312 313 313 313 313 312 312 313 312 314 317 315 315 323 324 316 317 320 318 318 321 322 322 321 321 321 321 321 320 320 319
266 266 267 268 269 270 271 272 274 275 277 279 281 282 284 285 287 289 291 293 294 296 297 298 299 300 302 303 305 307 308 309 308 308 309 309 309 309 309 308 309 309 307 306 306 305 305 306 304 301 301 303 304 305 306 308 310 312 312 312 313 312 311 312 311 312 315 316 314 317 322 320 317 320 319 317 319 322 322 321 320 321 321 320 320 320 319 319
272 272 272 272 273 273 274 275 276 277 279 281 282 284 286 287 289 291 292 294 295 296 297 298 299 300 302 303 305 306 307 307 306 307 308 308 308 308 308 308 309 308 307 307 306 305 306 306 304 302 301 301 302 303 304 306 308 310 312 312 312 312 311 310 310 313 316 314 315 319 319 317 320 321 317 317 320 321 321 320 320 321 321 320 320 320 320 320
274 275 275 276 276 277 278 279 280 281 283 284 286 286 288 289 290 292 293 294 294 295 296 298 299 300 302 304 305 305 305 305 305 306 306 306 306 307 307 308 308 308 308 307 306 306 306 306 304 302 303 304 304 304 304 306 308 311 313 313 313 312 311 309 311 315 314 313 317 320 316 317 322 319 316 317 320 320 320 320 320 320 320 320 320 319 320 319
276 277 277 278 279 280 281 282 283 284 285 286 287 287 288 290 291 292 293 293 294 295 297 298 299 300 302 304 304 304 303 303 304 306 306 305 305 306 307 308 308 308 307 307 306 305 305 305 303 301 303 305 306 306 306 307 310 313 314 314 314 311 309 310 314 315 313 313 318 319 315 318 321 317 315 318 319 320 320 320 320 320 319 319 319 319 319 319
277 278 279 280 281 281 282 283 284 284 285 286 286 287 289 290 291 292 293 294 294 296 298 299 299 300 302 303 303 303 303 303 305 306 305 305 305 306 307 307 307 307 306 306 305 304 303 304 302 300 302 304 305 305 306 307 311 314 314 315 313 309 309 312 314 313 312 314 318 317 315 318 320 316 315 318 319 319 319 319 320 319 319 319 319 319 319 319
279 279 280 281 281 282 282 283 284 285 285 286 286 288 289 290 291 292 293 294 295 297 298 298 299 301 303 302 302 303 302 303 305 306 305 305 306 306 306 306 306 305 305 305 304 303 303 303 301 300 301 303 304 304 305 307 311 313 315 314 310 308 311 313 312 312 313 315 317 317 316 318 318 315 316 318 318 318 319 319 319 318 318 318 318 318 318 318
281 281 282 282 283 283 283 284 285 285 285 286 287 288 289 290 291 292 293 294 296 296 297 298 299 301 302 302 302 302 302 303 305 305 305 306 306 305 305 306 305 304 304 303 303 303 303 302 301 299 300 303 304 303 305 307 310 313 315 312 308 310 312 311 311 313 313 315 316 316 316 318 316 315 316 318 317 318 318 318 318 317 317 317 318 318 318 317
283 283 284 284 284 284 284 285 286 286 287 287 288 289 289 290 291 292 293 294 295 296 297 298 300 301 302 302 302 302 302 303 304 304 304 305 304 304 304 304 303 303 302 302 302 302 302 300 299 298 300 303 303 303 304 306 309 314 314 310 309 311 310 310 312 313 313 314 315 315 316 316 315 314 316 317 316 317 317 317 317 316 316 317 317 317 316 316
284 284 284 285 285 285 285 286 286 286 287 287 288 288 289 290 291 292 293 294 294 295 297 299 300 301 302 301 301 302 302 303 303 303 304 304 304 304 303 303 302 301 301 301 301 301 299 299 298 298 300 303 303 303 304 305 310 314 312 310 309 309 308 310 312 313 313 314 314 314 315 314 314 314 315 315 316 316 316 316 316 315 316 316 316 316 315 314
284 284 285 285 285 284 285 285 285 285 286 287 287 288 289 290 291 292 293 294 294 295 297 299 300 301 302 301 301 301 302 302 303 304 304 304 304 304 303 302 302 301 301 301 300 299 298 298 298 299 301 303 303 303 304 307 311 313 311 309 308 307 308 310 312 313 313 313 313 314 313 313 313 314 314 314 315 315 315 315 315 315 315 315 315 314 314 313